Weather History for KMAI - January, 2013

Change the Weather History Date:

Monday, January 21, 2013

  Actual Average Record
Temperature  
Mean Temperature 52 °F 50 °F  
Max Temperature 67 °F 62 °F - ()
Min Temperature 37 °F 39 °F - ()
Degree Days  
Heating Degree Days 13    
Month to date heating degree days 163  
Since 1 July heating degree days 654  
Cooling Degree Days 0    
Month to date cooling degree days 46  
Year to date cooling degree days 46  
Growing Degree Days 2 (Base 50)    
Moisture  
Dew Point 39 °F    
Average Humidity 66    
Maximum Humidity 100    
Minimum Humidity 32    
Precipitation  
Precipitation 0.00 in 0.15 in - ()
Month to date precipitation 0.51 3.16  
Year to date precipitation 0.51 3.16  
Sea Level Pressure  
Sea Level Pressure 30.14 in    
Wind  
Wind Speed 3 mph (NNW)    
Max Wind Speed 12 mph    
Max Gust Speed 14 mph    
Visibility 10 miles    
Events      
T = Trace of Precipitation, MM = Missing Value Source: NWS Daily Summary

Daily Weather History Graph

Daily Weather History Graph

Search for Another Location

Airport or City:

Trip Planner

Search our weather history database for the weather conditions in past years. The results will help you decide how hot, cold, wet, or windy it might be!

Date:

Astronomy

Jan. 21, 2013 Rise Set
Actual Time 6:37 AM CST 5:07 PM CST
Civil Twilight 6:11 AM CST 5:32 PM CST
Nautical Twilight 5:42 AM CST 6:02 PM CST
Astronomical Twilight 5:13 AM CST 6:31 PM CST
Moon 12:47 PM CST (1/21) 2:04 AM CST (1/21)
Length of Visible Light 11h 21m
Length of Day
10h 29m
Waxing Gibbous, 75% of the Moon is Illuminated
Jan 21
Waxing Gibbous
Jan 26
Full
Feb 3
Last Quarter
Feb 10
New
Feb 17
First Quarter

Hourly Weather History & Observations

Time (CST) Temp. Dew Point Humidity Pressure Visibility Wind Dir Wind Speed Gust Speed Precip Events Conditions
12:53 AM 39.9 °F 37.9 °F 93% 30.13 in 10.0 mi Calm Calm - N/A   Clear
1:53 AM 41.0 °F 37.9 °F 89% 30.12 in 10.0 mi Calm Calm - N/A   Clear
3:53 AM 39.9 °F 37.0 °F 89% 30.09 in 10.0 mi Calm Calm - N/A   Clear
4:53 AM 37.9 °F 37.0 °F 97% 30.11 in 10.0 mi Calm Calm - N/A   Clear
5:53 AM 39.0 °F 36.0 °F 89% 30.12 in 10.0 mi Calm Calm - N/A   Clear
6:53 AM 37.9 °F 36.0 °F 93% 30.14 in 10.0 mi Calm Calm - N/A   Clear
7:53 AM 43.0 °F 39.9 °F 89% 30.16 in 10.0 mi Calm Calm - N/A   Clear
8:53 AM 52.0 °F 42.1 °F 69% 30.19 in 10.0 mi NNW 3.5 mph - N/A   Clear
9:53 AM 57.9 °F 41.0 °F 53% 30.20 in 10.0 mi NW 4.6 mph - N/A   Clear
10:53 AM 62.1 °F 41.0 °F 46% 30.17 in 10.0 mi Calm Calm - N/A   Clear
11:53 AM 64.0 °F 37.9 °F 38% 30.13 in 10.0 mi North 4.6 mph - N/A   Clear
12:53 PM 66.0 °F 36.0 °F 33% 30.10 in 10.0 mi NW 5.8 mph - N/A   Clear
1:53 PM 66.0 °F 36.0 °F 33% 30.09 in 10.0 mi North 5.8 mph - N/A   Clear
2:53 PM 64.9 °F 36.0 °F 34% 30.09 in 10.0 mi NNW 9.2 mph - N/A   Clear
3:53 PM 64.9 °F 37.0 °F 36% 30.10 in 10.0 mi WNW 4.6 mph - N/A   Clear
4:53 PM 61.0 °F 39.9 °F 46% 30.10 in 10.0 mi NW 3.5 mph - N/A   Clear
5:53 PM 55.0 °F 42.1 °F 62% 30.11 in 10.0 mi Calm Calm - N/A   Clear
6:53 PM 52.0 °F 43.0 °F 71% 30.14 in 10.0 mi Calm Calm - N/A   Clear
7:53 PM 50.0 °F 42.1 °F 74% 30.15 in 10.0 mi NNW 3.5 mph - N/A   Clear
8:53 PM 51.1 °F 41.0 °F 68% 30.16 in 10.0 mi NNW 4.6 mph - N/A   Clear
9:53 PM 52.0 °F 39.9 °F 63% 30.17 in 10.0 mi North 4.6 mph - N/A   Clear
10:53 PM 51.1 °F 39.0 °F 63% 30.17 in 10.0 mi North 6.9 mph - N/A   Clear
11:53 PM 48.9 °F 37.9 °F 66% 30.17 in 10.0 mi NNW 4.6 mph - N/A   Clear